Location: Newark
(49.8969°N, 3.3422°E)
Time: 11:09:56
(UTC+00:00)

Vanguard 2 Rocket - Pass Details

Date: 27 January 2020
Orbit: 554 x 3327 km, 32.9° (Epoch: 19 February)

Event Time Altitude Azimuth Distance (km) Brightness Sun altitude
Exits shadow 05:38:44 - 214° (SSW) 2,486 8.9 -17.4°
Reaches altitude 10° 05:40:27 10° 196° (SSW) 2,197 8.8 -17.1°
Maximum altitude 05:42:50 13° 167° (SSE) 2,183 9.1 -16.7°
Drops below altitude 10° 05:45:40 10° 140° (SE) 2,705 10.1 -16.3°
Sets 05:50:37 0° 116° (ESE) 4,232 11.9 -15.5°
